Spirit of St Louis, MO

4:29 AM CDT on May 28, 2017 (GMT -0500)
Spirit Of Saint Louis

Weather History for KSUS - April, 2013

Change the Weather History Date:

Tuesday, April 23, 2013

  Actual Average Record
Temperature  
Mean Temperature 49 °F -  
Max Temperature 61 °F 66 °F 86 °F (2009)
Min Temperature 39 °F 44 °F 33 °F (2003)
Degree Days  
Heating Degree Days 16    
Moisture  
Dew Point 45 °F    
Average Humidity 86    
Maximum Humidity 94    
Minimum Humidity 62    
Precipitation  
Precipitation 0.65 in - - ()
Sea Level Pressure  
Sea Level Pressure 29.96 in    
Wind  
Wind Speed 4 mph (NW)    
Max Wind Speed 15 mph    
Max Gust Speed 22 mph    
Visibility 7 miles    
Events Rain , Thunderstorm    
Averages and records for this station are not official NWS values.
T = Trace of Precipitation, MM = Missing Value Source: NWS Daily Summary

Daily Weather History Graph

Daily Weather History Graph

Search for Another Location

Airport or City:

Trip Planner

Search our weather history database for the weather conditions in past years. The results will help you decide how hot, cold, wet, or windy it might be!

Date:

Astronomy

Apr. 23, 2013 Rise Set
Actual Time 6:14 AM CDT 7:47 PM CDT
Civil Twilight 5:46 AM CDT 8:15 PM CDT
Nautical Twilight 5:13 AM CDT 8:49 PM CDT
Astronomical Twilight 4:37 AM CDT 9:25 PM CDT
Moon 5:43 PM CDT (4/23) 4:41 AM CDT (4/23)
Length of Visible Light 14h 28m
Length of Day
13h 32m
Waxing Gibbous, 94% of the Moon is Illuminated
Apr 23
Waxing Gibbous
Apr 25
Full
May 2
Last Quarter
May 9
New
May 17
First Quarter

Hourly Weather History & Observations

Time (CDT) Temp. Windchill Dew Point Humidity Pressure Visibility Wind Dir Wind Speed Gust Speed Precip Events Conditions
12:54 AM 59.0 °F - 46.0 °F 62% 29.98 in 10.0 mi Calm Calm - N/A   Overcast
1:54 AM 53.1 °F - 46.0 °F 77% 29.98 in 10.0 mi Calm Calm - N/A   Partly Cloudy
2:54 AM 53.1 °F - 46.9 °F 80% 29.98 in 10.0 mi Calm Calm - N/A   Mostly Cloudy
3:54 AM 54.0 °F - 46.9 °F 77% 29.96 in 10.0 mi Calm Calm - N/A   Overcast
4:54 AM 57.0 °F - 45.0 °F 64% 29.93 in 10.0 mi Calm Calm - N/A   Clear
5:54 AM 53.1 °F - 48.0 °F 83% 29.93 in 10.0 mi Calm Calm - N/A   Clear
6:54 AM 53.1 °F - 48.0 °F 83% 29.94 in 10.0 mi Calm Calm - N/A   Overcast
7:18 AM 53.6 °F - 50.0 °F 88% 29.96 in 10.0 mi WNW 4.6 mph - 0.00 in Rain Light Rain
7:54 AM 54.0 °F - 50.0 °F 86% 29.99 in 3.0 mi Calm Calm - 0.04 in Rain Light Rain
8:54 AM 54.0 °F - 51.1 °F 90% 30.00 in 3.0 mi Calm Calm - 0.08 in Rain Light Rain
9:54 AM 54.0 °F - 52.0 °F 93% 30.01 in 2.0 mi Calm Calm - 0.11 in Rain Rain
10:51 AM 55.4 °F - 53.6 °F 94% 29.96 in 6.0 mi ESE 5.8 mph - 0.06 in   Overcast
10:54 AM 55.9 °F - 53.1 °F 90% 29.96 in 6.0 mi SE 5.8 mph - 0.06 in   Overcast
11:54 AM 57.0 °F - 54.0 °F 89% 29.93 in 5.0 mi East 4.6 mph - 0.04 in   Overcast
12:24 PM 57.2 °F - 53.6 °F 88% 29.92 in 5.0 mi East 3.5 mph - N/A   Overcast
12:54 PM 57.9 °F - 54.0 °F 87% 29.91 in 7.0 mi Calm Calm - N/A   Overcast
1:54 PM 59.0 °F - 55.0 °F 87% 29.90 in 6.0 mi SSW 5.8 mph - 0.00 in Rain Light Rain
2:11 PM 57.2 °F - 53.6 °F 88% 29.90 in 6.0 mi SSW 3.5 mph - 0.00 in   Overcast
2:54 PM 57.9 °F - 54.0 °F 87% 29.90 in 6.0 mi West 4.6 mph - 0.01 in Rain Light Rain
3:54 PM 46.0 °F 40.2 °F 42.1 °F 86% 29.93 in 5.0 mi NW 12.7 mph 21.9 mph 0.02 in Rain Light Rain
4:04 PM 44.6 °F 38.4 °F 42.8 °F 93% 29.92 in 10.0 mi NW 12.7 mph 19.6 mph 0.00 in Rain , Thunderstorm Light Rain
4:19 PM 44.6 °F 39.2 °F 41.0 °F 87% 29.92 in 10.0 mi NNW 10.4 mph - 0.00 in Thunderstorm Overcast
4:54 PM 43.0 °F 36.4 °F 39.9 °F 89% 29.92 in 4.0 mi NNW 12.7 mph 21.9 mph 0.00 in Rain , Thunderstorm Light Rain
5:05 PM 42.8 °F 36.2 °F 39.2 °F 87% 29.93 in 2.0 mi NNW 12.7 mph - 0.01 in Rain Light Rain
5:39 PM 42.8 °F 35.4 °F 39.2 °F 87% 29.93 in 4.0 mi NW 15.0 mph 20.7 mph 0.05 in Rain Rain
5:54 PM 42.1 °F 35.7 °F 37.9 °F 85% 29.94 in 10.0 mi NNW 11.5 mph - 0.05 in Rain Light Rain
6:54 PM 42.1 °F 36.1 °F 37.9 °F 85% 29.95 in 7.0 mi NNW 10.4 mph - 0.04 in Rain Light Rain
7:54 PM 41.0 °F 36.4 °F 37.9 °F 89% 29.99 in 4.0 mi NW 6.9 mph - 0.08 in Rain Rain
8:54 PM 41.0 °F 33.5 °F 37.9 °F 89% 30.00 in 8.0 mi NW 13.8 mph - 0.04 in Rain Light Rain
9:54 PM 41.0 °F 34.7 °F 37.9 °F 89% 30.02 in 10.0 mi NNW 10.4 mph - 0.03 in   Overcast
10:27 PM 41.0 °F 37.1 °F 37.4 °F 87% 30.02 in 4.0 mi NW 5.8 mph - 0.03 in Rain Rain
10:54 PM 39.9 °F 32.9 °F 37.0 °F 89% 30.05 in 9.0 mi NW 11.5 mph - 0.04 in Rain Light Rain
10:56 PM 39.2 °F 32.5 °F 37.4 °F 93% 30.04 in 10.0 mi NW 10.4 mph - 0.00 in Rain Light Rain
11:12 PM 39.2 °F 32.5 °F 37.4 °F 93% 30.04 in 8.0 mi NW 10.4 mph - 0.00 in Rain Light Rain
11:51 PM 39.2 °F 33.0 °F 37.4 °F 93% 30.03 in 10.0 mi NNW 9.2 mph - 0.01 in   Overcast
11:54 PM 39.9 °F 33.4 °F 37.0 °F 89% 30.04 in 10.0 mi NNW 10.4 mph - 0.01 in   Overcast